Wind_Speed
39 38 35 33 26 23 27 7 3 9 4 1 14 15 12 4 6 9 2 5 3 5 7 10 14 16 22 25 26 33 37 38 43 45 42 41 36 31 24 32 30 28 28 23 19 18 14 17 16
42 43 37 36 29 24 23 26 15 15 16 13 8 11 15 11 3 7 11 12 13 14 15 11 14 21 29 28 26 35 39 38 41 44 44 37 35 32 27 29 27 28 23 18 16 11 11 15 18
45 44 41 37 29 26 25 25 24 13 7 10 15 10 14 9 2 7 11 10 8 8 8 14 22 21 22 26 31 33 37 40 43 46 40 38 35 27 30 26 19 28 22 17 19 16 11 13 21
51 46 44 44 36 28 24 24 23 15 7 6 11 10 9 14 7 4 7 6 9 13 20 21 21 20 24 29 33 38 40 43 46 47 38 35 36 32 32 16 16 28 23 16 15 13 17 20 22
49 49 45 46 40 34 30 25 24 23 15 13 13 11 12 10 10 13 13 12 15 21 23 22 20 22 29 34 36 39 41 47 45 46 41 34 33 30 24 14 22 28 20 12 11 19 16 15 23
49 52 47 43 39 40 39 35 31 30 24 21 19 16 18 14 18 19 16 15 16 20 22 21 22 28 32 39 37 40 47 45 43 41 32 33 31 32 27 16 25 26 24 11 15 13 15 11 11
50 50 49 47 39 39 42 39 38 35 39 33 24 22 21 22 18 19 19 19 20 20 21 25 28 32 39 39 40 46 45 42 42 33 28 27 29 31 30 27 30 29 17 10 14 11 11 11 12
48 50 50 51 43 30 32 35 35 38 38 40 29 28 26 27 27 23 23 23 23 24 28 29 33 38 41 44 45 44 42 39 35 29 27 29 31 24 20 28 18 6 9 9 17 14 16 14 12
49 49 52 54 47 45 41 36 33 35 36 37 34 33 34 34 33 31 29 29 27 29 32 35 38 42 44 45 43 38 36 30 28 25 24 27 27 20 17 14 7 3 7 14 14 14 16 15 7
50 49 50 52 52 50 53 52 50 47 45 40 40 42 41 37 35 36 37 36 34 35 38 41 42 44 41 37 36 35 28 24 20 19 23 23 23 15 11 11 3 2 6 14 15 16 20 18 17
50 51 48 50 52 55 52 48 47 45 47 44 45 45 42 39 41 38 37 37 37 38 37 36 38 35 33 34 33 28 20 13 13 18 22 23 17 17 13 4 8 6 14 9 16 16 18 19 16
47 48 48 47 48 49 49 49 47 46 44 44 42 41 41 40 41 40 36 37 37 37 35 30 29 28 28 27 24 20 12 7 12 18 16 18 21 17 14 10 6 11 14 14 14 15 22 22 20
45 47 48 48 49 50 50 50 50 48 45 42 39 38 38 37 34 33 32 31 32 30 27 27 25 22 20 16 12 9 8 9 13 13 14 16 18 16 8 11 11 13 12 13 17 17 25 23 19
37 41 43 44 47 50 49 47 46 45 43 42 39 36 33 31 31 28 27 26 27 26 22 19 12 7 9 12 15 13 10 7 11 15 16 15 15 14 12 13 15 15 18 19 20 23 25 23 24
27 28 32 30 36 41 43 44 43 42 40 37 35 33 32 27 22 19 20 23 20 12 8 8 15 12 11 16 17 15 10 9 10 13 15 16 15 14 14 15 15 17 18 23 25 26 20 19 21
23 23 27 29 32 35 36 36 37 39 38 33 29 24 19 16 17 17 16 8 3 5 17 16 14 15 13 11 11 10 12 13 16 15 17 18 19 18 19 19 17 17 22 25 23 20 21 28 28
26 26 29 28 28 28 30 31 32 32 31 27 23 20 17 17 11 4 3 6 15 21 15 17 19 17 15 15 17 15 17 17 18 21 22 22 23 23 22 24 23 23 21 22 25 22 25 36 38
24 27 25 22 23 23 26 26 29 29 29 26 22 16 14 9 11 12 18 25 22 17 16 16 16 17 17 19 18 18 19 17 18 20 22 24 25 23 27 29 24 19 19 28 29 33 38 41 41
22 25 23 22 20 19 18 21 19 18 20 18 16 15 16 21 25 28 30 24 18 16 17 17 18 18 19 18 15 15 16 18 20 23 28 30 30 28 26 26 27 27 33 33 35 39 44 46 46
22 24 23 19 20 17 18 19 16 15 16 15 19 26 30 30 29 32 27 21 18 14 17 18 17 16 16 17 19 19 19 22 24 26 28 28 30 30 31 27 27 31 33 40 42 46 44 42 40
23 24 26 19 15 20 16 18 24 21 25 21 32 36 33 31 28 28 22 18 13 14 17 16 14 15 16 18 18 20 23 23 24 27 29 32 36 39 39 39 40 40 45 45 46 46 41 36 36
27 19 17 16 19 19 16 23 25 32 38 40 36 36 31 27 23 25 20 16 16 15 14 13 13 13 16 16 18 21 25 27 28 30 34 39 41 43 46 47 50 55 60 59 55 49 44 43 39
26 16 12 16 21 23 30 29 36 40 43 42 36 33 31 29 24 22 23 20 16 13 11 10 12 14 15 16 20 25 30 32 34 39 42 45 48 49 51 54 58 63 63 61 55 49 47 36 29
31 23 11 17 19 28 35 39 41 40 34 39 36 34 31 31 28 26 24 19 14 10 9 8 10 13 16 20 23 27 31 36 40 45 49 51 53 57 58 62 63 67 66 59 55 47 40 34 26
21 19 17 26 31 37 41 44 41 36 30 31 35 32 35 34 29 26 24 19 14 9 8 9 10 12 17 22 26 31 36 40 43 48 52 54 56 60 63 65 67 71 68 58 54 40 34 31 26
27 26 28 32 39 41 41 39 37 31 27 30 31 31 28 31 27 23 21 17 12 7 6 6 8 12 17 23 28 33 38 42 46 50 55 57 59 63 66 67 71 75 66 60 49 41 35 32 27
33 29 32 33 38 37 38 39 36 32 30 30 32 33 28 25 23 19 16 13 9 5 2 5 7 12 18 25 30 35 39 44 48 52 57 60 62 64 70 70 75 74 62 59 45 39 36 30 30
38 43 36 31 35 36 38 37 35 35 33 31 31 30 27 24 23 20 16 11 7 3 2 7 12 17 21 27 32 36 40 45 49 53 59 61 63 66 70 72 76 73 61 51 42 42 40 39 42
40 39 39 34 38 39 37 38 35 35 33 34 26 24 23 19 16 14 11 8 5 3 5 9 14 20 25 29 33 37 42 46 50 55 60 64 65 68 71 75 79 68 56 45 42 43 43 43 44
49 46 44 45 40 42 40 39 36 36 34 31 27 24 21 18 14 11 9 8 7 7 9 13 17 22 26 31 35 39 43 48 52 56 61 66 67 70 72 75 76 64 56 44 42 44 46 48 49
Wind_Direction
208 208 209 210 206 204 213 206 275 269 294 304 182 176 170 238 243 224 273 176 201 229 279 298 300 298 316 315 319 327 330 328 328 329 330 337 339 344 330 344 335 344 348 351 353 347 343 359 2
209 211 213 210 208 201 210 224 241 248 257 261 231 220 215 162 226 284 257 238 245 267 284 290 290 307 317 313 310 320 324 325 324 323 329 339 345 346 348 346 338 349 349 354 356 352 335 344 2
211 213 216 214 214 208 210 212 218 224 232 289 252 227 243 233 227 213 223 226 231 253 272 296 309 305 310 302 308 316 322 323 325 325 330 339 346 344 341 340 341 357 359 2 351 349 347 351 353
209 215 217 219 217 208 203 208 209 204 209 243 244 243 247 258 250 253 228 250 269 273 301 316 311 307 311 320 321 320 321 325 325 325 331 338 340 337 347 357 1 0 353 3 357 355 4 2 8
210 216 216 218 216 205 201 201 215 210 210 244 270 279 266 266 256 263 280 266 274 283 293 300 310 308 317 323 323 319 324 325 324 327 330 333 334 331 335 332 339 344 349 350 352 352 356 13 3
209 216 221 216 215 215 211 213 218 230 232 238 259 272 279 274 277 279 283 278 276 283 284 296 308 309 314 321 319 318 324 323 328 328 337 336 332 328 334 318 318 330 334 340 343 350 351 350 360
209 215 217 219 215 215 218 221 223 237 239 239 252 263 274 276 272 277 279 278 277 279 283 292 298 311 318 317 316 320 323 326 325 327 336 333 325 321 319 309 316 311 325 335 351 333 336 343 333
212 215 219 220 216 218 212 218 230 238 237 243 245 260 270 278 277 269 271 278 281 291 291 296 305 310 310 312 315 319 322 324 326 328 329 327 325 330 320 312 320 293 324 344 336 334 337 324 315
211 214 217 219 220 217 220 216 221 231 244 247 256 259 272 273 274 277 282 284 286 289 295 299 303 305 309 312 317 319 320 320 323 329 342 332 328 327 321 319 325 236 357 351 338 336 349 337 326
214 217 219 221 223 222 228 235 244 252 253 253 258 263 267 270 273 276 279 283 285 287 293 298 303 304 313 319 316 313 318 324 334 342 336 339 331 334 348 331 24 74 352 2 340 337 338 322 308
216 221 222 224 228 230 231 237 245 254 255 256 258 262 268 273 275 276 279 284 289 294 300 300 306 315 316 312 313 314 316 339 344 338 341 344 13 37 36 46 60 20 6 349 332 344 346 339 329
218 222 226 229 232 235 239 239 243 256 254 254 258 264 267 270 271 273 281 286 290 298 304 309 311 313 313 313 312 318 344 3 349 359 354 13 27 27 35 38 5 343 341 348 326 349 343 343 332
219 224 227 230 235 238 241 244 249 254 256 255 260 264 266 268 267 272 283 289 297 301 301 304 309 312 316 319 332 5 46 42 24 10 359 11 27 35 28 5 360 338 333 330 314 326 333 335 332
220 224 230 233 237 238 241 243 245 249 250 254 258 262 265 269 274 282 288 292 296 296 299 303 323 7 58 61 64 64 59 26 13 1 1 23 19 19 12 359 348 335 330 318 314 313 324 328 322
210 222 225 229 235 238 241 243 244 245 248 251 254 260 266 271 276 279 284 289 289 300 313 84 96 76 71 62 51 47 39 20 1 9 10 19 11 5 3 355 345 341 344 339 327 316 321 327 328
215 223 229 230 233 234 236 239 243 245 245 246 250 254 259 266 272 275 279 274 307 118 113 102 69 49 54 50 51 52 45 35 33 18 8 7 360 354 352 346 338 324 325 330 325 313 307 311 313
221 230 231 232 237 239 241 241 241 241 239 238 241 249 250 260 252 222 200 133 132 122 106 79 57 58 56 54 53 43 37 26 19 8 3 1 356 352 349 348 343 335 331 341 332 323 309 311 307
231 244 240 246 239 234 233 235 236 235 232 231 232 231 221 181 141 139 132 129 127 99 80 67 58 66 59 51 43 34 29 17 9 2 359 355 355 358 354 356 345 339 336 328 331 326 318 310 303
230 242 243 240 246 231 227 222 214 214 208 191 181 175 163 144 133 127 131 124 104 84 76 80 80 65 53 44 39 32 24 17 10 4 4 3 3 360 1 349 347 337 336 332 327 322 312 306 299
219 230 246 244 225 210 207 184 165 171 154 156 161 146 139 137 133 129 127 109 94 86 93 85 77 65 56 46 37 27 17 14 12 7 3 5 3 0 360 353 348 344 341 337 329 324 321 316 309
210 218 241 219 197 198 189 157 140 150 137 147 147 132 133 132 132 133 123 107 99 99 92 85 71 56 46 38 30 21 18 15 12 8 2 6 4 2 359 356 353 352 347 340 337 337 335 329 324
193 221 210 176 170 168 173 139 138 139 136 139 135 130 135 137 138 126 115 116 105 100 89 80 66 49 43 36 31 22 20 17 12 6 6 7 4 1 357 357 354 353 350 347 345 343 339 328 321
197 209 190 172 165 160 150 143 145 146 141 139 137 132 136 133 138 130 121 117 110 101 91 74 59 45 36 31 25 19 14 9 8 6 5 6 4 1 359 358 357 353 350 347 347 341 333 324 323
195 215 234 169 161 156 148 148 150 152 152 141 142 140 137 133 133 129 124 117 113 106 88 67 46 29 20 19 15 11 8 6 5 4 3 3 2 360 360 358 355 352 349 349 347 341 335 328 328
204 193 199 166 154 149 151 151 153 160 164 153 145 145 144 140 143 140 132 128 121 103 79 52 28 11 4 7 9 6 3 3 1 1 1 359 1 359 357 356 354 350 349 348 348 345 337 332 336
174 177 189 170 158 155 155 156 154 162 166 159 148 148 151 146 147 143 138 134 126 109 78 50 16 360 354 359 2 2 360 358 357 358 357 357 359 357 355 354 353 350 349 349 349 348 336 336 332
179 183 194 178 163 163 163 164 163 170 168 163 155 152 158 154 148 146 143 140 134 129 73 18 349 342 349 355 356 356 354 353 353 354 354 355 356 356 354 353 352 349 349 352 352 348 348 339 328
188 192 185 189 179 175 174 176 170 171 170 170 166 161 167 164 162 161 162 158 167 184 324 334 336 339 345 350 349 349 348 349 350 351 351 352 354 354 354 352 351 349 349 349 351 353 345 337 336
196 194 174 196 188 189 186 180 173 175 174 171 171 171 172 178 176 174 182 195 212 248 304 326 331 335 339 344 342 344 344 345 348 349 349 349 352 352 353 350 350 347 347 348 348 349 350 343 341
189 187 178 179 187 198 193 187 185 183 175 176 180 183 187 188 193 201 218 238 266 293 312 323 326 328 333 336 338 339 341 343 346 346 347 348 350 351 351 349 348 346 347 347 341 346 350 345 341
Height
10993 10996 11000 11004 11007 11011 11012 11012 11010 11015 11017 11018 11020 11023 11024 11024 11025 11026 11028 11029 11029 11029 11028 11027 11025 11024 11022 11020 11019 11016 11012 11007 11003 10998 10994 10990 10987 10982 10980 10976 10971 10965 10961 10959 10957 10956 10953 10948 10946
10992 10996 10999 11002 11006 11011 11011 11013 11015 11016 11018 11020 11022 11021 11024 11026 11026 11025 11027 11029 11029 11029 11027 11026 11026 11024 11023 11020 11018 11016 11011 11007 11003 10998 10994 10989 10985 10981 10979 10975 10970 10965 10960 10957 10956 10955 10953 10951 10947
10991 10995 10998 11001 11006 11009 11010 11013 11016 11017 11019 11020 11022 11022 11024 11026 11026 11027 11027 11028 11027 11027 11027 11026 11025 11023 11021 11019 11017 11013 11009 11004 11000 10995 10990 10986 10983 10979 10977 10973 10969 10965 10961 10958 10956 10955 10955 10953 10950
10991 10994 10998 11000 11005 11009 11010 11012 11015 11017 11019 11021 11021 11022 11023 11025 11028 11028 11029 11028 11028 11027 11025 11024 11021 11020 11019 11017 11014 11011 11007 11002 10997 10992 10987 10982 10980 10977 10976 10972 10969 10965 10962 10960 10957 10955 10954 10953 10953
10989 10988 10994 11000 11004 11008 11010 11012 11015 11016 11018 11019 11020 11022 11024 11026 11027 11028 11029 11028 11027 11027 11025 11024 11021 11019 11016 11014 11012 11007 11002 10997 10992 10987 10982 10980 10976 10974 10973 10969 10967 10964 10962 10959 10957 10956 10954 10952 10952
10983 10986 10991 10997 11002 11005 11008 11010 11012 11015 11017 11018 11020 11021 11022 11025 11027 11027 11028 11026 11026 11025 11024 11022 11019 11017 11015 11013 11009 11004 10999 10994 10989 10984 10980 10977 10972 10970 10969 10967 10965 10963 10962 10959 10957 10954 10953 10951 10949
10980 10983 10987 10993 10997 11001 11005 11009 11011 11012 11015 11016 11018 11020 11021 11021 11023 11024 11025 11024 11024 11023 11022 11020 11017 11016 11013 11010 11005 11001 10996 10991 10986 10982 10979 10975 10971 10968 10966 10964 10963 10962 10961 10959 10958 10955 10952 10950 10947
10982 10984 10988 10991 10995 10998 11001 11005 11008 11011 11013 11015 11016 11018 11019 11020 11020 11021 11022 11022 11022 11021 11020 11017 11015 11013 11010 11007 11001 10997 10994 10988 10984 10980 10977 10974 10970 10966 10964 10961 10960 10958 10959 10958 10958 10957 10953 10949 10946
10977 10982 10983 10989 10995 10998 10999 11001 11005 11008 11011 11013 11014 11016 11016 11018 11018 11018 11017 11017 11018 11017 11015 11014 11012 11008 11006 11002 10998 10994 10991 10986 10982 10979 10975 10972 10968 10964 10961 10960 10957 10957 10958 10958 10957 10956 10953 10949 10945
10975 10977 10980 10987 10991 10995 10997 10999 11001 11003 11007 11010 11012 11013 11014 11014 11014 11013 11013 11013 11014 11013 11011 11010 11007 11004 11001 10997 10994 10991 10987 10984 10981 10979 10975 10971 10966 10961 10959 10959 10958 10958 10958 10956 10955 10954 10952 10948 10944
10972 10974 10980 10983 10988 10991 10995 10998 11000 11002 11004 11007 11009 11010 11010 11009 11008 11010 11009 11008 11009 11009 11008 11005 11003 11000 10996 10993 10990 10987 10985 10983 10981 10979 10976 10973 10967 10961 10960 10962 10962 10960 10956 10956 10956 10953 10951 10947 10944
10969 10973 10976 10981 10985 10988 10991 10995 10997 10998 10999 11001 11003 11005 11005 11006 11004 11006 11006 11005 11006 11006 11004 11001 10999 10996 10993 10991 10987 10985 10985 10983 10982 10980 10978 10974 10969 10965 10965 10964 10962 10959 10957 10956 10956 10954 10952 10948 10945
10966 10968 10972 10975 10979 10982 10985 10989 10991 10993 10994 10996 10999 11000 11000 11000 11001 11001 11002 11002 11002 11002 11001 10998 10996 10994 10992 10989 10986 10985 10985 10985 10984 10982 10979 10975 10971 10968 10967 10964 10962 10961 10959 10958 10956 10952 10950 10946 10942
10963 10966 10969 10971 10973 10976 10979 10982 10985 10986 10989 10992 10994 10994 10994 10995 10997 10998 10998 10998 10999 11000 10998 10996 10996 10995 10992 10990 10988 10988 10988 10987 10984 10984 10982 10978 10974 10970 10966 10965 10964 10962 10959 10956 10954 10951 10948 10944 10941
10961 10965 10967 10968 10968 10971 10974 10977 10979 10981 10984 10987 10988 10990 10991 10993 10994 10995 10995 10996 10997 10997 10996 10996 10998 10997 10995 10993 10992 10992 10991 10989 10987 10985 10982 10978 10974 10971 10968 10965 10964 10961 10959 10954 10950 10947 10944 10941 10937
10959 10961 10962 10962 10964 10966 10968 10971 10974 10976 10979 10982 10984 10986 10989 10990 10991 10992 10993 10994 10995 10997 10998 11000 11000 10998 10997 10997 10996 10994 10993 10991 10989 10986 10982 10978 10976 10973 10969 10966 10963 10959 10955 10949 10945 10941 10939 10934 10930
10954 10954 10957 10960 10961 10963 10964 10966 10969 10972 10974 10977 10980 10984 10987 10988 10989 10990 10991 10993 10997 11000 11001 11001 11001 11001 11000 10999 10997 10996 10994 10992 10990 10986 10982 10979 10976 10973 10969 10964 10959 10955 10952 10947 10942 10938 10934 10930 10925
10951 10950 10956 10957 10958 10959 10960 10962 10964 10968 10970 10974 10978 10981 10984 10986 10987 10989 10992 10997 11001 11002 11003 11003 11004 11003 11003 11001 10999 10998 10996 10995 10992 10988 10984 10979 10976 10971 10965 10961 10956 10952 10948 10944 10940 10934 10927 10920 10914
10949 10948 10950 10952 10955 10956 10956 10957 10959 10964 10968 10971 10975 10980 10983 10985 10988 10991 10996 11000 11004 11004 11005 11005 11006 11006 11004 11003 11002 10999 10998 10996 10992 10988 10982 10978 10973 10969 10966 10961 10955 10950 10944 10939 10933 10926 10918 10909 10904
10945 10946 10948 10951 10950 10952 10954 10953 10955 10961 10966 10970 10974 10979 10983 10988 10991 10994 10999 11002 11005 11006 11007 11008 11007 11007 11006 11005 11002 11000 10999 10997 10992 10987 10983 10980 10975 10970 10964 10958 10955 10948 10941 10932 10925 10917 10907 10897 10888
10943 10945 10946 10948 10947 10951 10954 10955 10954 10961 10964 10973 10978 10978 10985 10990 10994 10996 10999 11002 11006 11008 11008 11009 11009 11008 11007 11006 11005 11002 11001 10998 10994 10988 10983 10978 10973 10966 10960 10954 10947 10940 10933 10924 10915 10905 10897 10888 10881
10941 10943 10944 10945 10948 10950 10954 10956 10959 10964 10967 10976 10982 10981 10989 10993 10996 10996 10999 11003 11006 11008 11009 11010 11009 11009 11007 11008 11006 11004 11002 10997 10994 10989 10983 10976 10969 10961 10954 10947 10938 10929 10920 10911 10901 10892 10885 10878 10873
10939 10943 10946 10946 10948 10951 10953 10958 10964 10969 10971 10975 10982 10984 10989 10993 10998 10999 10999 11004 11007 11009 11010 11010 11010 11009 11009 11010 11007 11004 11000 10996 10992 10986 10980 10974 10966 10957 10950 10941 10932 10922 10912 10903 10893 10885 10878 10870 10865
10937 10943 10948 10949 10950 10953 10954 10959 10969 10975 10978 10976 10980 10984 10990 10994 10998 11000 11001 11004 11008 11011 11010 11010 11010 11010 11010 11008 11006 11002 10999 10994 10987 10980 10975 10968 10961 10952 10943 10935 10926 10916 10905 10895 10887 10877 10868 10862 10858
10937 10942 10948 10948 10949 10953 10960 10961 10968 10975 10981 10980 10979 10984 10989 10994 10998 11000 11001 11004 11008 11010 11009 11009 11009 11010 11009 11007 11004 10999 10994 10990 10984 10978 10971 10964 10957 10947 10938 10929 10919 10907 10896 10887 10878 10869 10861 10855 10851
10933 10940 10945 10948 10951 10956 10961 10967 10968 10975 10981 10982 10981 10986 10993 10994 10997 10999 11000 11003 11006 11008 11009 11009 11009 11008 11006 11004 11001 10996 10992 10987 10980 10974 10967 10960 10952 10942 10933 10922 10911 10898 10887 10878 10869 10861 10854 10850 10846
10933 10938 10940 10952 10954 10960 10964 10968 10970 10977 10981 10983 10983 10984 10993 10996 10997 11000 11002 11004 11006 11008 11008 11008 11007 11006 11004 11000 10996 10993 10989 10984 10978 10970 10963 10955 10947 10938 10927 10917 10905 10894 10882 10872 10865 10857 10850 10845 10839
10927 10927 10939 10951 10957 10963 10963 10968 10970 10976 10980 10983 10986 10987 10992 10994 10995 10998 11000 11001 11004 11005 11006 11006 11004 11002 10999 10996 10993 10990 10986 10981 10974 10967 10959 10952 10943 10934 10923 10911 10900 10886 10876 10868 10860 10853 10848 10842 10836
10924 10933 10934 10945 10955 10961 10964 10968 10972 10977 10980 10982 10987 10989 10992 10995 10996 10997 10999 11000 11002 11003 11003 11002 11000 10998 10995 10993 10990 10986 10982 10977 10971 10963 10956 10947 10939 10928 10918 10905 10893 10883 10873 10864 10857 10852 10846 10838 10830
10916 10922 10928 10935 10949 10959 10963 10966 10970 10975 10978 10982 10986 10989 10992 10994 10996 10998 10999 11000 11000 11000 10999 10999 10997 10995 10992 10989 10986 10982 10978 10972 10966 10960 10952 10943 10934 10924 10912 10902 10891 10879 10868 10861 10855 10848 10840 10832 10824